Total_Precipitation_Accumulation
0.06 0.06 0.06 0.04 0.04 0.03 0.03 0.03 0.03 0.03 0.04 0.03 0.02 0.02 0.02 0.03 0.02 0.02 0.02 0.02 0.01 0.01 0.01 0.00 0.01 0.01 0.01 0.00 0.00 0.00 0.00 0.00 0.00 0.00 0.00 0.00 0.00 0.00 0.00 0.00 0.00 0.00 0.00 0.00 0.00 0.00 0.01 0.00 0.00 0.00 0.00 0.00 0.00 0.00 0.02 0.04 0.24 0.42 2.28 1.60 2.76 3.05 3.16 1.78 2.19 2.14 1.44 1.53 1.34 2.01 2.96 2.59 1.81 1.32 1.44 1.27 1.61 1.33 0.59 0.57 0.37 0.22 0.05 0.04 0.04 0.04 0.02 0.04
0.04 0.05 0.05 0.03 0.02 0.03 0.03 0.03 0.03 0.04 0.04 0.03 0.02 0.02 0.02 0.02 0.03 0.02 0.02 0.02 0.02 0.02 0.01 0.01 0.01 0.01 0.01 0.00 0.00 0.00 0.01 0.00 0.00 0.00 0.00 0.00 0.00 0.00 0.00 0.00 0.00 0.00 0.00 0.00 0.00 0.00 0.00 0.01 0.00 0.00 0.00 0.00 0.00 0.01 0.00 0.34 0.25 1.17 1.83 1.31 1.74 1.57 2.00 1.20 1.33 1.93 2.22 1.85 1.14 1.42 1.75 1.61 1.43 1.29 1.38 1.95 1.43 0.68 0.52 0.49 0.42 0.15 0.05 0.05 0.03 0.02 0.03 0.05
0.05 0.05 0.04 0.03 0.02 0.03 0.03 0.03 0.03 0.03 0.03 0.02 0.02 0.02 0.01 0.02 0.01 0.01 0.01 0.01 0.02 0.02 0.02 0.00 0.01 0.01 0.00 0.00 0.00 0.00 0.01 0.00 0.00 0.00 0.00 0.00 0.00 0.00 0.00 0.00 0.00 0.00 0.00 0.00 0.00 0.00 0.00 0.00 0.00 0.00 0.00 0.03 0.00 0.01 0.01 0.63 0.26 0.68 0.73 1.48 2.47 0.56 2.08 0.99 0.73 1.62 1.64 1.08 1.56 1.55 1.20 1.46 1.17 1.67 1.04 1.64 1.07 0.47 0.37 0.26 0.20 0.11 0.10 0.05 0.07 0.04 0.04 0.07
0.05 0.05 0.03 0.02 0.02 0.03 0.03 0.02 0.02 0.02 0.02 0.02 0.01 0.02 0.02 0.02 0.01 0.01 0.01 0.02 0.01 0.01 0.01 0.01 0.00 0.00 0.01 0.00 0.00 0.00 0.00 0.00 0.00 0.00 0.00 0.00 0.00 0.00 0.00 0.00 0.00 0.00 0.00 0.00 0.00 0.00 0.00 0.00 0.00 0.00 0.00 0.00 0.02 0.00 0.07 0.22 0.12 1.18 0.44 1.61 1.50 1.09 1.45 1.75 0.71 1.15 1.11 0.59 1.40 1.65 1.29 1.34 1.43 1.37 1.63 1.11 0.79 1.29 0.77 0.10 0.09 0.06 0.02 0.02 0.03 0.04 0.03 0.05
0.05 0.04 0.03 0.02 0.02 0.03 0.02 0.02 0.02 0.02 0.02 0.01 0.01 0.02 0.02 0.02 0.02 0.02 0.02 0.01 0.01 0.00 0.01 0.01 0.01 0.01 0.00 0.00 0.00 0.00 0.00 0.00 0.00 0.00 0.00 0.00 0.00 0.00 0.00 0.00 0.00 0.00 0.00 0.00 0.00 0.00 0.00 0.00 0.00 0.00 0.00 0.00 0.00 0.05 0.01 0.09 0.04 0.26 0.77 0.52 0.50 1.11 1.66 0.98 0.69 0.57 0.88 0.75 1.74 1.33 1.16 1.43 1.07 0.99 1.83 1.60 1.35 1.12 0.84 0.23 0.10 0.02 0.00 0.02 0.03 0.04 0.02 0.02
0.05 0.04 0.03 0.03 0.03 0.02 0.02 0.02 0.01 0.01 0.01 0.02 0.02 0.02 0.02 0.02 0.02 0.02 0.01 0.01 0.01 0.01 0.01 0.01 0.01 0.00 0.00 0.00 0.00 0.01 0.00 0.00 0.00 0.00 0.00 0.00 0.00 0.00 0.00 0.00 0.00 0.00 0.00 0.00 0.00 0.00 0.00 0.00 0.00 0.00 0.00 0.00 0.06 0.15 0.41 0.07 0.18 0.69 0.51 0.41 0.32 0.66 1.15 1.23 0.86 1.34 0.57 0.75 1.29 0.98 1.30 0.72 0.85 1.11 1.26 1.69 1.78 1.85 0.73 0.47 0.04 0.02 0.00 0.01 0.03 0.01 0.02 0.01
0.04 0.02 0.03 0.04 0.04 0.03 0.02 0.01 0.01 0.01 0.02 0.02 0.03 0.01 0.01 0.02 0.01 0.01 0.01 0.01 0.01 0.01 0.00 0.00 0.00 0.01 0.00 0.00 0.00 0.00 0.00 0.00 0.00 0.00 0.00 0.00 0.00 0.00 0.00 0.00 0.00 0.00 0.00 0.00 0.00 0.00 0.00 0.00 0.00 0.00 0.00 0.00 0.00 0.03 0.20 0.16 0.38 0.13 0.41 0.18 0.53 0.45 0.66 1.11 1.50 1.54 0.85 0.84 0.90 1.36 0.51 1.04 0.61 1.09 0.75 0.79 1.29 0.69 0.49 0.39 0.09 0.07 0.01 0.00 0.01 0.00 0.01 0.00
0.03 0.02 0.03 0.03 0.03 0.02 0.02 0.01 0.01 0.02 0.01 0.02 0.02 0.02 0.01 0.01 0.01 0.01 0.01 0.01 0.01 0.01 0.01 0.00 0.00 0.00 0.00 0.00 0.00 0.00 0.00 0.00 0.00 0.00 0.00 0.00 0.00 0.00 0.00 0.00 0.00 0.00 0.00 0.00 0.00 0.00 0.00 0.00 0.00 0.00 0.00 0.01 0.13 0.15 0.30 0.05 0.05 0.15 0.37 0.40 0.53 0.42 1.29 2.21 1.65 1.61 1.96 1.85 1.03 0.64 0.58 1.00 1.58 1.07 0.65 0.95 0.61 0.32 0.51 0.60 0.26 0.02 0.00 0.01 0.00 0.00 0.02 0.02
0.02 0.02 0.02 0.02 0.02 0.02 0.01 0.02 0.02 0.01 0.01 0.01 0.01 0.01 0.01 0.01 0.01 0.01 0.01 0.01 0.01 0.01 0.00 0.01 0.00 0.00 0.00 0.00 0.00 0.00 0.00 0.00 0.00 0.00 0.00 0.00 0.00 0.00 0.00 0.00 0.00 0.00 0.00 0.00 0.00 0.00 0.00 0.00 0.00 0.00 0.03 0.00 0.00 0.00 0.06 0.02 0.13 0.08 0.17 0.34 0.61 0.95 1.88 2.41 2.38 1.87 1.76 1.67 1.32 1.30 1.58 0.86 1.42 1.06 1.20 0.50 0.70 0.45 0.40 0.28 0.07 0.02 0.00 0.00 0.01 0.00 0.01 0.01
0.02 0.02 0.02 0.02 0.01 0.01 0.01 0.01 0.02 0.01 0.01 0.01 0.01 0.01 0.01 0.01 0.01 0.01 0.01 0.01 0.01 0.00 0.01 0.01 0.00 0.00 0.00 0.00 0.00 0.00 0.00 0.00 0.00 0.00 0.00 0.00 0.00 0.00 0.00 0.00 0.00 0.00 0.00 0.00 0.00 0.00 0.00 0.00 0.00 0.00 0.00 0.00 0.00 0.00 0.19 0.07 0.07 0.06 0.16 0.38 0.82 1.10 2.02 2.40 2.01 2.87 2.38 1.23 1.59 1.25 1.16 1.30 1.37 0.94 1.83 0.87 0.79 0.27 0.11 0.15 0.11 0.04 0.00 0.01 0.00 0.01 0.00 0.00
0.02 0.02 0.02 0.01 0.01 0.01 0.01 0.01 0.01 0.01 0.01 0.01 0.01 0.01 0.01 0.01 0.01 0.01 0.01 0.00 0.00 0.00 0.01 0.01 0.00 0.00 0.00 0.00 0.00 0.00 0.00 0.00 0.00 0.00 0.00 0.00 0.00 0.00 0.00 0.00 0.00 0.00 0.00 0.00 0.00 0.00 0.00 0.00 0.00 0.00 0.00 0.07 0.01 0.00 0.00 0.06 0.03 0.12 0.23 0.29 0.99 1.31 2.13 2.69 2.61 2.27 2.80 2.81 1.66 1.65 1.09 1.34 1.61 1.68 1.55 0.70 0.83 0.47 0.18 0.08 0.04 0.03 0.01 0.00 0.00 0.01 0.00 0.02
0.01 0.01 0.01 0.01 0.01 0.01 0.01 0.01 0.01 0.01 0.01 0.01 0.01 0.01 0.01 0.01 0.01 0.00 0.01 0.00 0.00 0.00 0.01 0.01 0.00 0.00 0.00 0.00 0.00 0.00 0.00 0.00 0.00 0.00 0.00 0.00 0.00 0.00 0.00 0.00 0.00 0.00 0.00 0.00 0.00 0.00 0.00 0.00 0.00 0.00 0.00 0.00 0.05 0.00 0.01 0.05 0.02 0.14 0.34 0.63 0.81 1.07 2.92 3.65 2.90 3.01 3.29 3.99 2.81 2.11 1.83 1.83 1.30 1.76 1.22 0.90 0.94 0.70 0.53 0.09 0.06 0.06 0.03 0.01 0.01 0.00 0.01 0.01
0.01 0.01 0.01 0.00 0.01 0.01 0.01 0.01 0.01 0.01 0.01 0.01 0.01 0.01 0.01 0.01 0.01 0.00 0.00 0.00 0.00 0.01 0.01 0.00 0.00 0.00 0.00 0.00 0.00 0.00 0.00 0.00 0.00 0.00 0.00 0.00 0.00 0.00 0.00 0.00 0.00 0.00 0.00 0.00 0.00 0.00 0.00 0.00 0.00 0.00 0.00 0.00 0.00 0.04 0.01 0.07 0.11 0.26 0.65 0.93 0.80 1.16 2.01 4.15 3.54 5.27 4.55 3.56 2.44 2.08 2.21 1.58 1.58 1.20 1.12 0.88 0.90 0.89 0.64 0.14 0.07 0.05 0.03 0.01 0.00 0.00 0.00 0.00
0.01 0.01 0.00 0.01 0.00 0.01 0.01 0.01 0.00 0.01 0.01 0.01 0.01 0.01 0.01 0.01 0.00 0.00 0.00 0.00 0.00 0.02 0.00 0.01 0.00 0.00 0.00 0.00 0.00 0.00 0.00 0.00 0.00 0.00 0.00 0.00 0.00 0.00 0.00 0.00 0.00 0.00 0.00 0.00 0.00 0.00 0.00 0.00 0.00 0.00 0.00 0.00 0.00 0.00 0.07 0.05 0.08 0.72 0.78 0.33 1.15 1.02 1.71 2.86 2.97 3.81 3.85 2.53 2.96 1.43 2.32 2.15 2.43 1.33 1.39 0.90 0.73 0.59 0.42 0.38 0.10 0.08 0.05 0.02 0.01 0.01 0.01 0.00
0.01 0.01 0.00 0.00 0.01 0.01 0.01 0.01 0.01 0.01 0.01 0.00 0.01 0.01 0.01 0.00 0.00 0.00 0.00 0.00 0.00 0.00 0.00 0.01 0.00 0.00 0.00 0.00 0.00 0.00 0.00 0.00 0.00 0.00 0.00 0.00 0.00 0.00 0.00 0.00 0.00 0.00 0.00 0.00 0.00 0.00 0.00 0.00 0.00 0.00 0.00 0.00 0.00 0.00 0.02 0.09 0.29 0.55 0.40 1.09 0.85 0.81 1.28 2.36 2.51 2.14 2.45 2.00 2.26 1.57 2.15 1.91 1.57 1.38 1.44 0.84 0.49 1.09 0.66 0.80 0.21 0.09 0.08 0.07 0.04 0.02 0.03 0.02
0.01 0.00 0.00 0.00 0.01 0.01 0.00 0.00 0.00 0.00 0.01 0.01 0.00 0.00 0.00 0.00 0.00 0.00 0.00 0.00 0.00 0.00 0.01 0.00 0.00 0.00 0.00 0.00 0.00 0.00 0.00 0.00 0.00 0.00 0.00 0.00 0.00 0.00 0.00 0.00 0.00 0.00 0.00 0.00 0.00 0.00 0.00 0.00 0.00 0.00 0.00 0.00 0.00 0.00 0.04 0.07 0.42 0.43 0.34 0.91 1.00 0.92 1.21 1.44 2.08 2.22 1.70 1.81 2.43 1.33 2.37 1.90 2.51 1.47 1.17 0.87 0.93 0.94 0.58 0.47 0.22 0.07 0.07 0.03 0.02 0.03 0.03 0.01
0.00 0.00 0.00 0.01 0.01 0.00 0.00 0.00 0.01 0.00 0.01 0.01 0.00 0.00 0.00 0.00 0.00 0.00 0.00 0.00 0.00 0.00 0.00 0.00 0.00 0.00 0.00 0.00 0.00 0.00 0.00 0.00 0.00 0.00 0.00 0.00 0.00 0.00 0.00 0.00 0.00 0.00 0.00 0.00 0.00 0.00 0.00 0.00 0.00 0.00 0.00 0.00 0.00 0.00 0.03 0.07 0.50 0.35 0.17 0.72 0.74 0.62 0.58 1.32 1.21 1.95 1.47 1.07 2.12 1.32 1.74 1.73 1.70 0.97 1.11 1.39 1.40 1.08 0.72 0.67 0.28 0.22 0.10 0.02 0.05 0.04 0.06 0.03
0.00 0.00 0.00 0.00 0.01 0.00 0.00 0.00 0.00 0.01 0.01 0.00 0.00 0.00 0.00 0.00 0.00 0.00 0.00 0.00 0.00 0.00 0.00 0.00 0.00 0.00 0.00 0.00 0.00 0.00 0.00 0.00 0.00 0.00 0.00 0.00 0.00 0.00 0.00 0.00 0.00 0.00 0.00 0.00 0.00 0.00 0.00 0.00 0.00 0.00 0.00 0.00 0.00 0.00 0.03 0.32 0.45 0.54 0.22 0.66 0.49 0.66 0.57 1.12 0.73 1.61 1.99 2.01 1.95 1.48 2.17 1.74 1.82 1.26 1.49 2.01 1.32 1.02 0.89 0.68 0.40 0.18 0.30 0.34 0.07 0.00 0.03 0.06
0.01 0.00 0.00 0.01 0.01 0.01 0.00 0.00 0.00 0.01 0.01 0.00 0.00 0.00 0.00 0.00 0.00 0.00 0.00 0.00 0.00 0.00 0.00 0.00 0.00 0.00 0.00 0.00 0.00 0.00 0.00 0.00 0.00 0.00 0.00 0.00 0.00 0.00 0.00 0.00 0.00 0.00 0.00 0.00 0.00 0.00 0.00 0.00 0.00 0.00 0.00 0.00 0.00 0.00 0.01 0.10 0.20 0.28 0.69 0.91 0.91 0.54 0.86 0.75 0.46 0.95 1.10 1.59 2.12 1.84 1.59 1.96 1.57 1.86 1.49 1.83 1.90 1.23 1.03 1.08 1.05 0.40 0.09 0.23 0.19 0.11 0.06 0.05
0.01 0.01 0.00 0.00 0.00 0.01 0.00 0.00 0.00 0.00 0.02 0.00 0.00 0.00 0.00 0.00 0.00 0.00 0.00 0.00 0.00 0.00 0.00 0.00 0.00 0.00 0.00 0.00 0.00 0.00 0.00 0.00 0.00 0.00 0.00 0.00 0.00 0.00 0.00 0.00 0.00 0.00 0.00 0.00 0.00 0.00 0.00 0.00 0.00 0.00 0.00 0.00 0.02 0.01 0.01 0.03 0.07 0.12 0.19 0.33 0.90 1.07 1.10 1.34 1.28 1.39 1.44 1.51 2.10 1.94 1.49 1.52 1.51 1.67 1.33 0.88 1.45 1.73 1.11 1.32 0.66 0.99 0.53 0.36 0.17 0.45 0.10 0.21
0.00 0.00 0.00 0.00 0.00 0.00 0.00 0.00 0.00 0.00 0.03 0.00 0.00 0.00 0.00 0.00 0.00 0.00 0.00 0.00 0.00 0.00 0.00 0.00 0.00 0.00 0.00 0.00 0.00 0.00 0.00 0.00 0.00 0.00 0.00 0.00 0.00 0.00 0.00 0.00 0.00 0.00 0.00 0.00 0.00 0.00 0.00 0.00 0.00 0.00 0.01 0.00 0.00 0.00 0.00 0.01 0.01 0.05 0.15 0.31 0.54 1.06 0.51 1.26 1.11 1.21 1.81 1.54 1.92 1.82 1.47 1.25 1.38 1.83 1.50 1.50 1.11 1.16 1.31 1.32 0.90 0.80 0.48 0.55 0.44 0.31 0.12 0.13
0.01 0.00 0.00 0.00 0.00 0.00 0.00 0.00 0.00 0.01 0.02 0.00 0.00 0.00 0.00 0.00 0.00 0.00 0.00 0.00 0.00 0.00 0.00 0.00 0.00 0.00 0.00 0.00 0.00 0.00 0.00 0.00 0.00 0.00 0.00 0.00 0.00 0.00 0.00 0.00 0.00 0.00 0.00 0.00 0.00 0.00 0.00 0.00 0.00 0.00 0.00 0.00 0.00 0.00 0.00 0.00 0.00 0.08 0.08 0.27 0.24 0.41 0.48 0.95 1.64 1.61 2.30 1.90 2.13 1.62 1.58 2.05 2.06 1.83 2.15 1.77 0.69 0.80 0.80 1.09 0.78 1.17 0.86 0.60 0.44 0.65 0.48 0.12
0.01 0.00 0.00 0.00 0.00 0.00 0.00 0.00 0.00 0.01 0.00 0.00 0.00 0.00 0.00 0.00 0.00 0.00 0.00 0.00 0.00 0.00 0.00 0.00 0.00 0.00 0.00 0.00 0.00 0.00 0.00 0.00 0.00 0.00 0.00 0.00 0.00 0.00 0.00 0.00 0.00 0.00 0.00 0.00 0.00 0.00 0.00 0.00 0.00 0.00 0.00 0.00 0.00 0.00 0.00 0.00 0.00 0.06 0.09 0.15 0.42 0.50 0.48 0.71 1.29 1.49 1.68 1.77 2.20 2.31 2.01 2.19 2.29 1.97 2.04 1.57 1.29 1.53 1.44 1.20 1.09 0.99 0.94 0.31 0.18 0.33 0.41 0.40
0.01 0.01 0.00 0.00 0.00 0.00 0.00 0.00 0.01 0.01 0.00 0.00 0.00 0.00 0.00 0.00 0.00 0.00 0.00 0.00 0.00 0.00 0.00 0.00 0.00 0.00 0.00 0.00 0.00 0.00 0.00 0.00 0.00 0.00 0.00 0.00 0.00 0.00 0.00 0.00 0.00 0.00 0.00 0.00 0.00 0.00 0.00 0.00 0.00 0.00 0.00 0.00 0.00 0.00 0.00 0.00 0.00 0.00 0.07 0.33 0.37 0.35 0.42 0.57 0.93 1.06 1.12 1.03 1.52 1.64 1.93 2.08 2.33 2.19 2.54 2.31 2.26 2.59 1.96 1.42 1.15 0.97 0.63 0.60 0.36 0.16 0.30 0.50
0.01 0.01 0.01 0.00 0.00 0.00 0.00 0.00 0.00 0.00 0.00 0.00 0.00 0.00 0.00 0.00 0.00 0.00 0.00 0.00 0.00 0.00 0.00 0.00 0.00 0.00 0.00 0.00 0.00 0.00 0.00 0.00 0.00 0.00 0.00 0.00 0.00 0.00 0.00 0.00 0.00 0.00 0.00 0.00 0.00 0.00 0.00 0.00 0.00 0.00 0.00 0.00 0.00 0.00 0.00 0.00 0.01 0.01 0.01 0.05 0.24 0.68 0.35 0.41 0.47 0.61 0.67 1.77 1.26 1.24 1.48 2.06 1.66 1.92 1.45 1.90 1.69 1.93 1.65 1.49 0.94 0.74 0.88 0.48 0.26 0.17 0.23 0.41
0.01 0.01 0.01 0.00 0.00 0.00 0.00 0.00 0.00 0.00 0.00 0.00 0.00 0.00 0.00 0.00 0.00 0.00 0.00 0.01 0.04 0.00 0.00 0.00 0.00 0.00 0.00 0.00 0.00 0.00 0.00 0.00 0.00 0.00 0.00 0.00 0.00 0.00 0.00 0.00 0.00 0.00 0.00 0.00 0.00 0.00 0.00 0.00 0.00 0.00 0.00 0.00 0.00 0.00 0.00 0.00 0.00 0.00 0.17 0.00 0.01 0.13 0.30 0.41 0.55 0.63 0.83 0.82 1.24 0.92 0.96 1.46 1.72 2.17 2.29 1.64 1.26 1.10 1.19 0.85 0.82 0.75 0.91 0.50 0.23 0.21 0.25 0.29
0.01 0.00 0.01 0.01 0.01 0.01 0.00 0.00 0.00 0.00 0.00 0.00 0.00 0.00 0.00 0.00 0.00 0.00 0.00 0.11 0.07 0.00 0.00 0.00 0.00 0.00 0.00 0.00 0.00 0.00 0.00 0.00 0.00 0.00 0.00 0.00 0.00 0.00 0.00 0.00 0.00 0.00 0.00 0.00 0.00 0.00 0.00 0.00 0.00 0.00 0.00 0.00 0.00 0.00 0.00 0.01 0.00 0.02 0.02 0.00 0.01 0.03 0.20 0.19 0.45 0.42 0.78 0.51 1.43 0.99 0.96 1.33 1.40 1.48 1.48 1.95 1.35 1.05 1.28 0.93 1.40 1.38 0.60 0.35 0.26 0.23 0.26 0.36
0.01 0.01 0.00 0.00 0.00 0.02 0.00 0.00 0.00 0.00 0.00 0.00 0.00 0.00 0.00 0.00 0.00 0.00 0.01 0.20 0.00 0.00 0.00 0.00 0.00 0.00 0.00 0.00 0.00 0.00 0.00 0.00 0.00 0.00 0.00 0.00 0.00 0.00 0.00 0.00 0.00 0.00 0.00 0.00 0.00 0.00 0.00 0.00 0.00 0.00 0.00 0.00 0.00 0.00 0.00 0.00 0.00 0.00 0.00 0.00 0.01 0.03 0.15 0.21 0.17 0.36 0.44 0.47 1.22 0.91 1.18 0.83 0.99 1.35 1.20 1.90 1.81 1.16 0.82 0.97 1.60 1.02 0.79 0.59 0.25 0.26 0.35 0.45
0.01 0.01 0.01 0.01 0.00 0.00 0.00 0.00 0.00 0.00 0.00 0.00 0.00 0.00 0.00 0.00 0.00 0.00 0.11 0.14 0.00 0.00 0.00 0.00 0.00 0.00 0.00 0.00 0.00 0.00 0.00 0.00 0.00 0.00 0.00 0.00 0.00 0.00 0.00 0.00 0.00 0.00 0.00 0.00 0.00 0.00 0.00 0.00 0.00 0.00 0.00 0.00 0.00 0.00 0.00 0.00 0.03 0.00 0.00 0.00 0.00 0.01 0.08 0.22 0.24 0.38 0.40 0.46 0.65 0.64 0.83 0.80 1.18 1.42 1.17 1.58 1.25 0.64 0.37 0.51 0.89 1.02 1.02 0.57 0.38 0.54 0.60 0.36
0.01 0.01 0.01 0.01 0.01 0.00 0.00 0.00 0.00 0.00 0.00 0.00 0.00 0.00 0.00 0.00 0.00 0.07 0.12 0.16 0.00 0.03 0.00 0.00 0.00 0.00 0.00 0.00 0.00 0.00 0.00 0.00 0.00 0.00 0.00 0.00 0.00 0.00 0.00 0.00 0.00 0.00 0.00 0.00 0.00 0.00 0.00 0.00 0.00 0.00 0.00 0.00 0.00 0.00 0.00 0.00 0.00 0.00 0.00 0.01 0.02 0.04 0.08 0.23 0.31 0.36 0.38 0.41 0.41 0.64 0.92 0.51 0.99 0.98 0.71 0.97 1.34 0.82 0.42 0.40 0.52 0.89 0.73 0.51 0.38 0.45 0.46 0.40
0.01 0.00 0.01 0.02 0.00 0.00 0.00 0.00 0.00 0.00 0.00 0.00 0.00 0.00 0.00 0.00 0.05 0.12 0.05 0.00 0.00 0.00 0.00 0.00 0.00 0.00 0.00 0.00 0.00 0.00 0.00 0.00 0.00 0.00 0.00 0.00 0.00 0.00 0.00 0.00 0.00 0.00 0.00 0.00 0.00 0.00 0.00 0.00 0.00 0.00 0.00 0.00 0.00 0.00 0.00 0.00 0.01 0.01 0.11 0.01 0.01 0.14 0.09 0.17 0.82 0.52 0.42 0.29 0.53 0.63 0.63 0.67 0.64 1.05 0.42 0.30 0.48 0.37 0.37 0.41 0.27 0.55 0.87 0.47 0.65 0.42 0.21 0.28
0.00 0.00 0.00 0.01 0.00 0.00 0.00 0.00 0.00 0.00 0.00 0.00 0.00 0.00 0.00 0.15 0.04 0.07 0.05 0.00 0.10 0.00 0.02 0.00 0.00 0.00 0.00 0.00 0.00 0.00 0.00 0.00 0.00 0.00 0.00 0.00 0.00 0.00 0.00 0.01 0.00 0.00 0.00 0.00 0.00 0.00 0.00 0.00 0.00 0.00 0.00 0.00 0.00 0.00 0.00 0.01 0.00 0.00 0.02 0.01 0.13 0.24 0.18 0.63 1.20 0.37 0.18 0.63 0.71 0.64 1.12 1.37 0.57 0.58 0.40 0.16 0.36 0.53 0.51 0.32 0.18 0.16 0.54 0.29 0.48 0.47 0.16 0.19
0.00 0.00 0.00 0.00 0.00 0.00 0.00 0.00 0.00 0.00 0.00 0.00 0.00 0.00 0.03 0.06 0.14 0.09 0.07 0.00 0.01 0.00 0.00 0.00 0.01 0.00 0.00 0.00 0.00 0.00 0.00 0.00 0.00 0.00 0.00 0.00 0.00 0.00 0.00 0.00 0.00 0.00 0.01 0.00 0.00 0.00 0.00 0.00 0.00 0.00 0.00 0.00 0.00 0.00 0.02 0.01 0.00 0.02 0.02 0.05 0.01 0.11 0.13 0.19 0.45 0.29 0.42 0.19 0.31 0.58 0.74 1.01 0.85 0.28 0.14 0.13 0.16 0.24 0.41 0.40 0.19 0.18 0.32 0.39 0.16 0.23 0.20 0.11
0.00 0.00 0.00 0.00 0.00 0.00 0.00 0.00 0.00 0.00 0.00 0.00 0.00 0.00 0.16 0.16 0.04 0.01 0.02 0.00 0.00 0.00 0.00 0.01 0.00 0.00 0.00 0.01 0.00 0.00 0.00 0.00 0.00 0.00 0.00 0.01 0.00 0.01 0.00 0.00 0.00 0.00 0.00 0.00 0.00 0.00 0.00 0.00 0.00 0.00 0.01 0.00 0.00 0.00 0.00 0.01 0.00 0.00 0.03 0.00 0.00 0.02 0.12 0.18 0.25 0.53 0.38 0.65 0.72 0.71 0.51 0.91 0.66 1.50 0.21 0.10 0.04 0.10 0.19 0.37 0.30 0.27 0.30 0.46 0.35 0.23 0.26 0.13
0.00 0.00 0.00 0.00 0.00 0.00 0.00 0.00 0.00 0.00 0.00 0.00 0.02 0.12 0.19 0.11 0.05 0.07 0.06 0.00 0.00 0.00 0.00 0.00 0.00 0.00 0.01 0.00 0.00 0.00 0.00 0.01 0.00 0.00 0.00 0.01 0.02 0.00 0.01 0.00 0.00 0.00 0.00 0.00 0.00 0.00 0.00 0.00 0.00 0.00 0.00 0.00 0.00 0.00 0.00 0.01 0.01 0.01 0.00 0.00 0.00 0.02 0.00 0.06 0.48 0.35 0.29 0.56 0.21 0.83 0.49 0.73 1.14 0.35 0.32 0.20 0.03 0.11 0.34 0.78 0.66 0.25 0.19 0.57 1.14 0.64 0.29 0.22
0.00 0.00 0.00 0.00 0.00 0.00 0.00 0.00 0.00 0.00 0.00 0.00 0.10 0.11 0.19 0.06 0.09 0.01 0.02 0.00 0.00 0.00 0.00 0.00 0.00 0.01 0.01 0.01 0.00 0.01 0.00 0.01 0.00 0.01 0.01 0.01 0.00 0.01 0.00 0.00 0.00 0.00 0.00 0.00 0.00 0.00 0.00 0.00 0.00 0.00 0.00 0.00 0.00 0.00 0.01 0.00 0.12 0.11 0.01 0.01 0.02 0.00 0.01 0.05 0.03 0.01 0.03 0.29 0.33 0.33 0.14 0.39 0.24 0.34 0.45 0.27 0.20 0.70 0.43 0.17 0.23 0.29 0.13 0.18 0.36 0.74 0.81 0.74
0.00 0.00 0.00 0.00 0.00 0.00 0.00 0.00 0.00 0.00 0.00 0.07 0.18 0.25 0.09 0.03 0.01 0.00 0.01 0.00 0.00 0.00 0.00 0.01 0.01 0.01 0.02 0.02 0.01 0.01 0.01 0.00 0.00 0.03 0.10 0.00 0.01 0.00 0.00 0.00 0.00 0.00 0.00 0.00 0.00 0.00 0.00 0.00 0.00 0.00 0.00 0.00 0.00 0.00 0.00 0.00 0.00 0.06 0.10 0.05 0.00 0.00 0.00 0.04 0.22 0.32 0.16 0.25 0.44 0.28 0.40 0.25 0.30 1.04 0.32 0.35 0.29 0.32 0.23 0.06 0.22 0.20 0.15 0.14 0.32 0.79 1.15 1.17
0.00 0.00 0.00 0.00 0.00 0.00 0.00 0.00 0.00 0.00 0.01 0.11 0.13 0.06 0.01 0.05 0.00 0.00 0.00 0.00 0.00 0.00 0.01 0.09 0.02 0.00 0.03 0.02 0.02 0.01 0.01 0.02 0.04 0.01 0.04 0.00 0.06 0.00 0.00 0.00 0.00 0.00 0.00 0.00 0.00 0.00 0.00 0.00 0.00 0.00 0.00 0.00 0.00 0.00 0.02 0.00 0.00 0.03 0.20 0.06 0.05 0.47 0.09 0.05 0.07 0.10 0.14 0.15 0.35 0.24 0.17 0.33 0.34 0.71 0.41 0.61 0.60 0.11 0.12 0.07 0.07 0.09 0.20 0.10 0.13 0.35 0.71 0.65
0.00 0.00 0.02 0.00 0.00 0.00 0.00 0.00 0.00 0.00 0.01 0.24 0.20 0.28 0.11 0.02 0.01 0.00 0.00 0.00 0.00 0.00 0.01 0.01 0.02 0.00 0.00 0.02 0.01 0.01 0.01 0.04 0.00 0.05 0.04 0.02 0.05 0.00 0.00 0.01 0.01 0.00 0.00 0.00 0.00 0.00 0.00 0.00 0.01 0.00 0.00 0.00 0.00 0.02 0.10 0.11 0.01 0.00 0.00 0.02 0.00 0.29 0.30 0.26 0.10 0.19 0.16 0.50 0.10 0.83 0.33 0.89 0.69 0.50 0.27 0.58 0.72 0.69 0.24 0.12 0.22 0.17 0.13 0.21 0.05 0.23 0.62 0.84
0.00 0.00 0.01 0.00 0.00 0.00 0.00 0.00 0.00 0.03 0.19 0.39 0.12 0.11 0.03 0.00 0.02 0.00 0.00 0.00 0.00 0.00 0.01 0.01 0.00 0.01 0.00 0.01 0.01 0.02 0.02 0.02 0.02 0.02 0.01 0.06 0.05 0.01 0.00 0.00 0.00 0.00 0.00 0.00 0.00 0.00 0.00 0.00 0.01 0.01 0.00 0.00 0.02 0.00 0.00 0.13 0.22 0.03 0.03 0.00 0.02 0.01 0.05 0.02 0.14 0.16 0.15 0.49 0.18 0.29 0.39 0.46 0.64 0.39 1.19 0.81 1.06 0.51 0.26 0.42 0.38 0.34 0.17 0.10 0.10 0.08 0.69 0.84
0.00 0.00 0.02 0.00 0.00 0.00 0.00 0.00 0.02 0.05 0.08 0.13 0.03 0.06 0.01 0.01 0.01 0.01 0.00 0.00 0.01 0.00 0.00 0.00 0.00 0.02 0.00 0.02 0.01 0.00 0.02 0.02 0.02 0.03 0.01 0.01 0.01 0.02 0.00 0.00 0.00 0.00 0.00 0.00 0.00 0.00 0.00 0.00 0.01 0.01 0.01 0.00 0.00 0.00 0.00 0.00 0.01 0.02 0.07 0.14 0.06 0.07 0.05 0.03 0.10 0.00 0.03 0.03 0.02 0.07 0.52 0.44 0.49 0.40 0.33 0.46 0.25 0.31 0.40 0.29 0.36 0.34 0.29 0.65 0.82 0.62 0.09 0.40
0.00 0.02 0.01 0.00 0.00 0.00 0.00 0.03 0.06 0.03 0.06 0.08 0.12 0.01 0.01 0.01 0.01 0.01 0.00 0.01 0.01 0.02 0.00 0.00 0.00 0.00 0.00 0.01 0.00 0.00 0.01 0.03 0.05 0.05 0.03 0.02 0.01 0.00 0.00 0.00 0.00 0.00 0.01 0.02 0.01 0.00 0.00 0.00 0.00 0.02 0.00 0.01 0.00 0.00 0.00 0.00 0.02 0.01 0.01 0.03 0.02 0.07 0.08 0.20 0.07 0.21 0.09 0.06 0.02 0.17 0.11 0.90 0.20 0.19 0.57 0.40 0.55 0.41 0.24 0.16 0.29 0.42 0.50 0.54 0.73 0.55 0.82 0.64
0.01 0.00 0.00 0.00 0.00 0.00 0.00 0.06 0.01 0.02 0.02 0.03 0.00 0.03 0.01 0.03 0.01 0.03 0.01 0.02 0.02 0.04 0.02 0.01 0.01 0.01 0.00 0.00 0.00 0.00 0.00 0.05 0.03 0.05 0.05 0.03 0.02 0.01 0.00 0.00 0.00 0.01 0.00 0.02 0.00 0.00 0.00 0.00 0.01 0.00 0.00 0.00 0.00 0.00 0.00 0.02 0.03 0.05 0.03 0.03 0.06 0.03 0.05 0.16 0.12 0.08 0.06 0.09 0.10 0.24 0.23 0.91 0.25 0.33 0.39 0.28 0.56 0.31 0.22 0.07 0.19 0.32 0.49 0.47 1.03 0.39 0.51 0.90
0.00 0.00 0.00 0.00 0.00 0.00 0.02 0.06 0.03 0.04 0.01 0.01 0.03 0.03 0.02 0.05 0.01 0.01 0.03 0.06 0.12 0.05 0.02 0.02 0.02 0.03 0.03 0.00 0.00 0.00 0.00 0.08 0.07 0.04 0.06 0.06 0.04 0.01 0.01 0.01 0.00 0.00 0.01 0.00 0.01 0.01 0.00 0.03 0.01 0.05 0.04 0.01 0.01 0.00 0.01 0.00 0.01 0.09 0.15 0.13 0.06 0.09 0.04 0.04 0.07 0.08 0.03 0.01 0.15 0.16 0.24 0.53 0.32 0.15 0.33 0.36 0.59 0.43 0.53 0.28 0.36 0.96 0.71 0.74 0.72 0.51 0.50 0.84
0.01 0.00 0.00 0.00 0.00 0.00 0.03 0.01 0.04 0.04 0.02 0.04 0.04 0.05 0.10 0.11 0.07 0.01 0.02 0.04 0.02 0.05 0.03 0.03 0.04 0.01 0.01 0.01 0.00 0.00 0.00 0.06 0.12 0.06 0.06 0.08 0.07 0.03 0.01 0.01 0.01 0.01 0.00 0.00 0.00 0.00 0.04 0.04 0.05 0.09 0.03 0.07 0.05 0.08 0.12 0.11 0.16 0.04 0.06 0.11 0.05 0.03 0.06 0.06 0.14 0.18 0.05 0.04 0.03 0.12 0.22 0.49 0.31 0.13 0.34 0.41 0.81 0.64 0.79 0.45 0.61 0.68 0.78 0.83 0.47 0.48 0.50 0.55
0.00 0.05 0.00 0.00 0.00 0.04 0.02 0.00 0.03 0.02 0.05 0.03 0.02 0.05 0.08 0.11 0.19 0.11 0.06 0.06 0.02 0.02 0.01 0.16 0.02 0.00 0.04 0.03 0.03 0.01 0.03 0.03 0.10 0.20 0.10 0.13 0.06 0.06 0.03 0.03 0.02 0.01 0.00 0.00 0.02 0.02 0.04 0.02 0.00 0.01 0.04 0.13 0.29 0.19 0.05 0.05 0.05 0.07 0.11 0.01 0.04 0.01 0.01 0.08 0.16 0.17 0.18 0.09 0.15 0.25 0.21 0.36 0.39 0.40 0.54 0.65 0.35 0.39 0.69 0.59 0.70 0.76 0.79 0.86 0.77 0.68 0.69 0.79
0.11 0.06 0.00 0.03 0.01 0.05 0.03 0.05 0.12 0.08 0.09 0.05 0.05 0.02 0.04 0.08 0.12 0.17 0.14 0.09 0.19 0.09 0.04 0.04 0.09 0.03 0.06 0.02 0.08 0.05 0.02 0.08 0.05 0.09 0.11 0.12 0.11 0.10 0.06 0.04 0.04 0.02 0.02 0.01 0.02 0.00 0.02 0.11 0.02 0.01 0.00 0.00 0.03 0.01 0.07 0.04 0.03 0.05 0.01 0.09 0.02 0.04 0.04 0.11 0.11 0.29 0.02 0.07 0.23 0.25 0.20 0.11 0.24 0.24 0.39 0.30 0.31 0.45 0.55 0.51 0.52 0.79 0.80 0.94 0.68 0.66 0.54 0.75
0.14 0.09 0.02 0.18 0.12 0.05 0.03 0.07 0.06 0.07 0.09 0.04 0.07 0.13 0.04 0.03 0.09 0.16 0.15 0.15 0.19 0.18 0.08 0.19 0.08 0.11 0.13 0.09 0.06 0.14 0.10 0.10 0.10 0.18 0.11 0.09 0.08 0.11 0.13 0.08 0.06 0.09 0.03 0.02 0.02 0.00 0.03 0.09 0.07 0.01 0.01 0.02 0.01 0.03 0.01 0.14 0.05 0.06 0.07 0.03 0.06 0.02 0.01 0.14 0.08 0.06 0.04 0.09 0.43 0.17 0.15 0.17 0.26 0.41 0.27 0.24 0.24 0.32 0.41 0.87 0.37 0.69 0.82 0.71 0.60 0.99 0.90 0.75
0.06 0.08 0.03 0.10 0.15 0.09 0.07 0.16 0.13 0.12 0.06 0.09 0.10 0.11 0.10 0.04 0.05 0.08 0.11 0.23 0.18 0.31 0.18 0.23 0.20 0.15 0.13 0.17 0.11 0.24 0.09 0.19 0.23 0.11 0.12 0.15 0.12 0.12 0.16 0.14 0.12 0.06 0.08 0.05 0.06 0.06 0.04 0.06 0.04 0.01 0.01 0.02 0.00 0.02 0.00 0.02 0.09 0.02 0.01 0.00 0.00 0.04 0.06 0.02 0.02 0.07 0.13 0.13 0.12 0.11 0.28 0.33 0.26 0.47 0.24 0.39 0.34 0.42 0.65 0.50 0.62 0.59 0.70 1.07 0.93 1.42 1.11 1.00
0.36 0.30 0.60 0.09 0.09 0.07 0.08 0.13 0.09 0.06 0.08 0.11 0.18 0.13 0.30 0.08 0.06 0.03 0.05 0.07 0.21 0.25 0.16 0.19 0.17 0.28 0.25 0.21 0.18 0.14 0.11 0.10 0.18 0.20 0.10 0.09 0.11 0.11 0.20 0.13 0.20 0.23 0.08 0.06 0.04 0.06 0.01 0.10 0.02 0.06 0.05 0.03 0.02 0.02 0.03 0.00 0.00 0.01 0.00 0.03 0.01 0.01 0.00 0.03 0.03 0.00 0.01 0.13 0.08 0.12 0.14 0.36 0.77 0.51 0.39 0.61 0.31 0.43 0.29 0.40 1.01 0.82 0.78 0.76 1.04 1.61 1.94 1.81
0.23 0.41 0.62 0.73 0.42 0.10 0.30 0.15 0.15 0.18 0.11 0.06 0.13 0.17 0.10 0.16 0.10 0.04 0.03 0.04 0.18 0.30 0.26 0.25 0.18 0.15 0.15 0.15 0.15 0.19 0.09 0.02 0.03 0.04 0.04 0.04 0.19 0.15 0.15 0.36 0.17 0.19 0.30 0.17 0.15 0.13 0.02 0.06 0.03 0.17 0.11 0.05 0.04 0.06 0.04 0.02 0.00 0.04 0.02 0.02 0.01 0.02 0.02 0.02 0.07 0.06 0.10 0.28 0.11 0.15 0.30 0.39 0.77 0.60 0.89 0.45 0.67 0.48 0.31 0.41 0.56 1.20 0.75 0.88 1.24 0.85 0.86 1.14
0.30 0.36 0.68 0.86 0.73 0.27 0.28 0.15 0.20 0.15 0.14 0.11 0.24 0.17 0.09 0.08 0.06 0.06 0.10 0.12 0.27 0.28 0.24 0.26 0.22 0.19 0.11 0.11 0.13 0.13 0.10 0.04 0.01 0.01 0.01 0.02 0.02 0.02 0.04 0.06 0.06 0.11 0.18 0.13 0.15 0.17 0.07 0.07 0.16 0.11 0.09 0.14 0.07 0.11 0.09 0.13 0.12 0.12 0.04 0.10 0.07 0.03 0.02 0.04 0.03 0.06 0.11 0.12 0.25 0.26 0.63 0.38 0.53 0.31 0.29 0.53 0.45 0.19 0.39 0.42 0.39 0.65 1.12 0.83 0.64 0.81 1.27 2.00